| time (UTC) | temp F | wind direction | speed MPH | gust MPH | rain 1hr in | rain 24hr in | rain mn in | humidity % | barometer mb |
| 20260901044540 | 77 | 163 | 0.0 | 0.0 | 0.00 | 0.01 | 0.00 | 90 | 1014.7 |
| 20260901043036 | 77 | 163 | 0.0 | 0.0 | 0.00 | 0.01 | 0.00 | 89 | 1014.7 |
| 20260901041536 | 78 | 163 | 0.0 | 0.0 | 0.00 | 0.01 | 0.00 | 89 | 1014.5 |
| 20260901040031 | 78 | 163 | 0.0 | 0.0 | 0.00 | 0.01 | 0.00 | 89 | 1014.5 |
| 20260901034537 | 79 | 163 | 0.0 | 0.0 | 0.00 | 0.01 | 0.01 | 88 | 1014.5 |
| 20260901033013 | 79 | 163 | 0.0 | 0.0 | 0.00 | 0.01 | 0.01 | 87 | 1014.5 |
| 20260901031512 | 79 | 163 | 0.0 | 2.0 | 0.00 | 0.01 | 0.01 | 87 | 1014.5 |
| 20260901030055 | 79 | 153 | 0.0 | 2.0 | 0.00 | 0.01 | 0.01 | 88 | 1014.5 |
| 20260901024601 | 79 | 193 | 0.0 | 0.0 | 0.00 | 0.01 | 0.01 | 89 | 1014.7 |
| 20260901023048 | 79 | 190 | 0.0 | 0.0 | 0.00 | 0.01 | 0.01 | 90 | 1014.6 |
| 20260901021547 | 79 | 188 | 0.0 | 1.0 | 0.00 | 0.01 | 0.01 | 90 | 1014.6 |
| 20260901020022 | 79 | 171 | 0.0 | 0.0 | 0.00 | 0.01 | 0.01 | 92 | 1014.6 |
| 20260901014518 | 80 | 171 | 0.0 | 0.0 | 0.00 | 0.01 | 0.01 | 92 | 1014.5 |
| 20260901013101 | 81 | 171 | 0.0 | 0.0 | 0.00 | 0.01 | 0.01 | 91 | 1014.3 |
| 20260901011600 | 81 | 171 | 0.0 | 0.0 | 0.00 | 0.01 | 0.01 | 91 | 1014.1 |
| 20260901010049 | 82 | 171 | 0.0 | 0.0 | 0.00 | 0.01 | 0.01 | 89 | 1014.0 |
| 20260901004600 | 83 | 171 | 0.0 | 0.0 | 0.00 | 0.01 | 0.01 | 89 | 1013.8 |
| 20260901003048 | 83 | 171 | 0.0 | 0.0 | 0.00 | 0.01 | 0.01 | 88 | 1013.6 |
| 20260901001553 | 84 | 171 | 0.0 | 0.0 | 0.00 | 0.01 | 0.01 | 86 | 1013.7 |
| 20260901000100 | 85 | 171 | 0.0 | 0.0 | 0.00 | 0.01 | 0.01 | 83 | 1013.6 |
| 20260831234547 | 87 | 171 | 0.0 | 0.0 | 0.00 | 0.01 | 0.01 | 79 | 1013.9 |
| 20260831233047 | 90 | 171 | 0.0 | 0.0 | 0.00 | 0.01 | 0.01 | 73 | 1014.0 |
| 20260831231546 | 91 | 171 | 0.0 | 0.0 | 0.00 | 0.01 | 0.01 | 71 | 1013.7 |
| 20260831230028 | 91 | 170 | 0.0 | 4.0 | 0.00 | 0.01 | 0.01 | 68 | 1013.5 |
| 20260831224528 | 92 | 159 | 0.0 | 1.0 | 0.00 | 0.01 | 0.01 | 68 | 1013.5 |
| 20260831223010 | 92 | 159 | 0.0 | 3.0 | 0.00 | 0.01 | 0.01 | 65 | 1013.7 |
| 20260831221521 | 92 | 149 | 0.0 | 4.0 | 0.00 | 0.01 | 0.01 | 65 | 1013.6 |
| 20260831220052 | 92 | 155 | 0.0 | 5.0 | 0.00 | 0.01 | 0.01 | 64 | 1013.5 |
| 20260831214555 | 92 | 225 | 0.0 | 5.0 | 0.00 | 0.01 | 0.01 | 64 | 1013.7 |
| 20260831213034 | 92 | 172 | 1.0 | 8.0 | 0.00 | 0.01 | 0.01 | 62 | 1013.6 |
| 20260831211533 | 92 | 186 | 2.0 | 8.0 | 0.00 | 0.01 | 0.01 | 62 | 1013.6 |
| 20260831210014 | 92 | 211 | 2.0 | 7.0 | 0.00 | 0.01 | 0.01 | 62 | 1013.6 |
| 20260831204512 | 92 | 225 | 1.0 | 9.0 | 0.00 | 0.01 | 0.01 | 62 | 1013.7 |
| 20260831203102 | 92 | 284 | 1.0 | 8.0 | 0.00 | 0.01 | 0.01 | 61 | 1013.6 |
| 20260831201553 | 92 | 187 | 2.0 | 10.0 | 0.00 | 0.01 | 0.01 | 62 | 1013.5 |
| 20260831200036 | 91 | 219 | 3.0 | 9.0 | 0.00 | 0.01 | 0.01 | 63 | 1013.6 |
| 20260831194533 | 91 | 130 | 3.0 | 12.0 | 0.00 | 0.01 | 0.01 | 62 | 1013.6 |
| 20260831193024 | 91 | 221 | 1.0 | 9.0 | 0.00 | 0.01 | 0.01 | 62 | 1013.8 |
| 20260831191511 | 90 | 153 | 1.0 | 10.0 | 0.00 | 0.01 | 0.01 | 63 | 1013.9 |
| 20260831190116 | 90 | 136 | 2.0 | 11.0 | 0.00 | 0.01 | 0.01 | 63 | 1013.9 |
| 20260831184559 | 89 | 171 | 4.0 | 8.0 | 0.00 | 0.01 | 0.01 | 62 | 1014.1 |
| 20260831183029 | 89 | 224 | 2.0 | 9.0 | 0.00 | 0.01 | 0.01 | 64 | 1014.1 |
| 20260831181530 | 88 | 194 | 1.0 | 7.0 | 0.00 | 0.01 | 0.01 | 67 | 1014.3 |
| 20260831180005 | 87 | 165 | 2.0 | 10.0 | 0.00 | 0.01 | 0.01 | 66 | 1014.6 |
| 20260831174502 | 87 | 175 | 1.0 | 7.0 | 0.00 | 0.01 | 0.01 | 68 | 1014.9 |
| 20260831173049 | 86 | 223 | 2.0 | 7.0 | 0.00 | 0.01 | 0.01 | 66 | 1015.0 |
| 20260831171547 | 86 | 251 | 2.0 | 8.0 | 0.00 | 0.01 | 0.01 | 67 | 1015.2 |
| 20260831170044 | 85 | 231 | 1.0 | 9.0 | 0.00 | 0.01 | 0.01 | 69 | 1015.3 |
| 20260831164549 | 83 | 199 | 1.0 | 4.0 | 0.00 | 0.01 | 0.01 | 71 | 1015.5 |
| 20260831163038 | 82 | 131 | 0.0 | 7.0 | 0.00 | 0.01 | 0.01 | 72 | 1015.6 |
| 20260831161533 | 81 | 256 | 0.0 | 5.0 | 0.00 | 0.01 | 0.01 | 72 | 1015.5 |
| 20260831160031 | 80 | 182 | 1.0 | 5.0 | 0.00 | 0.01 | 0.01 | 74 | 1015.5 |
| 20260831154530 | 80 | 201 | 0.0 | 6.0 | 0.00 | 0.01 | 0.01 | 74 | 1015.7 |
| 20260831153018 | 79 | 184 | 1.0 | 6.0 | 0.00 | 0.01 | 0.01 | 74 | 1015.8 |
| 20260831151515 | 79 | 264 | 1.0 | 8.0 | 0.00 | 0.01 | 0.01 | 74 | 1015.8 |
| 20260831150013 | 79 | 182 | 2.0 | 7.0 | 0.00 | 0.01 | 0.01 | 74 | 1015.7 |
| 20260831144512 | 78 | 171 | 1.0 | 7.0 | 0.00 | 0.01 | 0.01 | 75 | 1015.8 |
| 20260831143011 | 78 | 221 | 2.0 | 6.0 | 0.00 | 0.01 | 0.01 | 74 | 1015.8 |
| 20260831141508 | 77 | 136 | 0.0 | 4.0 | 0.00 | 0.01 | 0.01 | 75 | 1015.9 |
| 20260831140007 | 77 | 213 | 1.0 | 4.0 | 0.00 | 0.01 | 0.01 | 75 | 1015.9 |
| 20260831134508 | 76 | 277 | 2.0 | 10.0 | 0.00 | 0.01 | 0.01 | 77 | 1015.9 |
| 20260831133056 | 75 | 180 | 1.0 | 7.0 | 0.00 | 0.01 | 0.01 | 79 | 1015.6 |
| 20260831131554 | 74 | 207 | 0.0 | 6.0 | 0.00 | 0.01 | 0.01 | 80 | 1015.6 |
| 20260831130026 | 73 | 151 | 0.0 | 3.0 | 0.00 | 0.01 | 0.01 | 83 | 1015.7 |
| 20260831124525 | 71 | 177 | 0.0 | 3.0 | 0.00 | 0.01 | 0.01 | 85 | 1015.5 |
| 20260831123008 | 71 | 169 | 0.0 | 2.0 | 0.00 | 0.01 | 0.01 | 86 | 1015.5 |
| 20260831121507 | 70 | 164 | 0.0 | 1.0 | 0.00 | 0.01 | 0.01 | 87 | 1015.4 |
| 20260831120049 | 70 | 167 | 0.0 | 0.0 | 0.00 | 0.01 | 0.01 | 88 | 1015.3 |
| 20260831114550 | 69 | 167 | 0.0 | 0.0 | 0.00 | 0.01 | 0.01 | 89 | 1015.3 |
| 20260831113032 | 69 | 167 | 0.0 | 0.0 | 0.00 | 0.01 | 0.01 | 90 | 1015.4 |
| 20260831111530 | 70 | 167 | 0.0 | 0.0 | 0.00 | 0.01 | 0.01 | 89 | 1015.3 |
| 20260831110012 | 70 | 167 | 0.0 | 0.0 | 0.00 | 0.01 | 0.01 | 89 | 1015.3 |
| 20260831104511 | 70 | 167 | 0.0 | 2.0 | 0.00 | 0.01 | 0.01 | 89 | 1015.2 |
| 20260831103054 | 70 | 166 | 0.0 | 0.0 | 0.00 | 0.01 | 0.01 | 89 | 1015.0 |
| 20260831101554 | 70 | 166 | 0.0 | 0.0 | 0.00 | 0.01 | 0.01 | 89 | 1015.0 |
| 20260831100046 | 70 | 166 | 0.0 | 2.0 | 0.00 | 0.01 | 0.01 | 88 | 1015.0 |
| 20260831094550 | 70 | 188 | 0.0 | 0.0 | 0.00 | 0.01 | 0.01 | 89 | 1015.1 |
| 20260831093111 | 70 | 188 | 0.0 | 2.0 | 0.00 | 0.01 | 0.01 | 89 | 1015.1 |
| 20260831091548 | 70 | 188 | 0.0 | 0.0 | 0.00 | 0.01 | 0.01 | 89 | 1015.1 |
| 20260831090042 | 70 | 188 | 0.0 | 2.0 | 0.00 | 0.01 | 0.01 | 89 | 1015.0 |
| 20260831084625 | 70 | 188 | 0.0 | 0.0 | 0.00 | 0.01 | 0.01 | 89 | 1015.1 |
| 20260831083045 | 70 | 188 | 0.0 | 1.0 | 0.00 | 0.01 | 0.01 | 88 | 1015.1 |
| 20260831081536 | 70 | 188 | 0.0 | 0.0 | 0.00 | 0.01 | 0.01 | 88 | 1015.1 |
| 20260831080035 | 71 | 188 | 0.0 | 0.0 | 0.00 | 0.01 | 0.01 | 87 | 1015.0 |
| 20260831074532 | 71 | 188 | 0.0 | 0.0 | 0.00 | 0.01 | 0.01 | 86 | 1015.1 |
| 20260831073057 | 72 | 188 | 0.0 | 2.0 | 0.01 | 0.01 | 0.01 | 85 | 1015.1 |
| 20260831071605 | 72 | 188 | 0.0 | 2.0 | 0.01 | 0.01 | 0.01 | 85 | 1015.3 |
| 20260831070037 | 72 | 193 | 0.0 | 0.0 | 0.01 | 0.01 | 0.01 | 84 | 1015.2 |
| 20260831064545 | 73 | 191 | 0.0 | 0.0 | 0.01 | 0.01 | 0.01 | 83 | 1015.3 |
| 20260831063021 | 74 | 192 | 0.0 | 2.0 | 0.00 | 0.00 | 0.00 | 82 | 1015.4 |
| 20260831061519 | 74 | 188 | 0.0 | 2.0 | 0.00 | 0.00 | 0.00 | 81 | 1015.4 |
| 20260831060018 | 74 | 206 | 0.0 | 3.0 | 0.00 | 0.00 | 0.00 | 79 | 1015.4 |
| 20260831054520 | 75 | 192 | 0.0 | 3.0 | 0.00 | 0.00 | 0.00 | 79 | 1015.3 |
| 20260831053015 | 75 | 171 | 0.0 | 0.0 | 0.00 | 0.00 | 0.00 | 80 | 1015.4 |
| 20260831051524 | 75 | 194 | 0.0 | 0.0 | 0.00 | 0.00 | 0.00 | 80 | 1015.6 |
| 20260831050012 | 75 | 187 | 0.0 | 0.0 | 0.00 | 0.00 | 0.00 | 81 | 1015.7 |